Centaur D AC-28 - Orbit

View from above orbital plane
View from above orbital plane
View from above satellite
View from above satellite

Ground track
Ground track

The orbit data is extracted from the following two-line orbital elements,

1 05816U 72003B   13137.35014784 -.00000043  00000-0 -76752-3 0  7750
2 05816 028.1950 072.2750 7178728 248.6875 329.4112 02.20825968332787
Epoch (UTC): 17 May 2013 08:24:12
Eccentricity: 0.7178728
inclination: 28.1950°
perigee height: 649 km
apogee height: 36413 km
right ascension of ascending node: 72.2750°
argument of perigee: 248.6875°
revolutions per day: 2.20825968
mean anomaly at epoch: 329.4112°
orbit number at epoch: 33278

The dashed part of the orbit path shows where the satellite is in the earth's shadow,  

Developed and maintained by Chris Peat, Heavens-Above GmbH. Please read the updated FAQ before sending e-mail. Imprint. DLR